Flag for Greece Weather past 2 weeks in Ilioupoli, Greece

61 °F

Light rain. Broken clouds.

Feels Like: 61 °F
Forecast: 53 / 62 °F
Wind: 9 mph from Southwest

Location: Eleftherios Venizelos International Airport

Current Time: Nov 28, 2015 at 11:52:24 AM

Latest Report: Nov 28, 2015 at 10:50 AM

Visibility: N/A

Pressure: 29.80 "Hg

Humidity: 63%

Dew point: 48 °F

Location of IlioupoliLocation

Historic Weather in Ilioupoli — Graph


Ilioupoli temperature yesterday

Maximum temperature yesterday: 66 °F (at 11:50 AM)
Minimum temperature yesterday: 54 °F (at 12:50 AM)
Average temperature yesterday: 61 °F

Past Weeks' High & Low Weather Summary

High72 °F (Nov 13, 11:20 AM)94% (Nov 13, 10:50 PM)30.33 "Hg (Nov 13, 10:50 PM)
Low41 °F (Nov 16, 4:50 AM)43% (Nov 16, 12:50 PM)29.50 "Hg (Nov 26, 3:50 AM)
Average61 °F74%29.98 "Hg
* Reported Nov 13 10:20 AM — Nov 28 10:50 AM, Ilioupoli, Weather by CustomWeather, © 2015

Note: Actual official high and low records may vary slightly from our data, if they occured in-between our weather recording intervals... More about our weather records


Ilioupoli weather history for previous 24 hours

Time TempWeatherWind HumidityBarometerVisibility
10:50 AM
Sat, Nov 28
61 °FLight rain. Broken clouds.9 mph63%29.80 "HgN/A
10:20 AM59 °FScattered clouds.8 mph72%29.80 "HgN/A
9:50 AM61 °FScattered clouds.6 mph68%29.80 "HgN/A
8:20 AM55 °FScattered clouds.5 mph77%29.80 "HgN/A
7:20 AM52 °FScattered clouds.2 mph88%29.74 "HgN/A
6:50 AM54 °FPassing clouds.6 mph82%29.74 "HgN/A
6:20 AM54 °FPartly cloudy.6 mph82%29.74 "HgN/A
5:50 AM54 °FLight rain. Partly cloudy.12 mph82%29.74 "HgN/A
5:20 AM54 °FLight rain. Partly cloudy.10 mph82%29.74 "Hg6 mi
4:50 AM54 °FPartly cloudy.7 mph77%29.77 "Hg6 mi
4:20 AM54 °FPartly cloudy.9 mph77%29.77 "Hg6 mi
3:50 AM54 °FLight rain. Partly cloudy.9 mph82%29.77 "Hg6 mi
3:20 AM55 °FLight rain. Partly cloudy.12 mph82%29.77 "Hg5 mi
1:50 AM61 °FLight rain. Partly cloudy.1 mph68%29.77 "Hg5 mi
12:50 AM57 °FPassing clouds.5 mph77%29.77 "HgN/A
11:50 PM
Fri, Nov 27
57 °FPassing clouds.1 mph72%29.77 "HgN/A
11:20 PM55 °FPassing clouds.No wind77%29.77 "HgN/A
10:50 PM55 °FPassing clouds.1 mph77%29.77 "HgN/A
10:20 PM57 °FPassing clouds.6 mph72%29.77 "HgN/A
9:50 PM57 °FPassing clouds.8 mph77%29.77 "HgN/A
9:20 PM57 °FPassing clouds.6 mph72%29.77 "HgN/A
8:50 PM59 °FPassing clouds.10 mph68%29.77 "HgN/A
8:20 PM61 °FPassing clouds.14 mph63%29.74 "HgN/A
7:50 PM61 °FLight rain. Passing clouds.14 mph72%29.74 "HgN/A
7:20 PM63 °FLight rain. Passing clouds.15 mph64%29.71 "HgN/A
6:50 PM63 °FPassing clouds.15 mph64%29.71 "HgN/A
6:20 PM63 °FPassing clouds.8 mph64%29.71 "HgN/A
5:50 PM63 °FPassing clouds.1 mph68%29.68 "HgN/A
5:20 PM61 °FPassing clouds.2 mph77%29.68 "HgN/A
4:50 PM61 °FScattered clouds.12 mph77%29.68 "HgN/A
4:20 PM61 °FScattered clouds.17 mph77%29.68 "HgN/A
3:50 PM61 °FScattered clouds.15 mph77%29.68 "HgN/A
3:20 PM59 °FThunderstorms. Partly sunny.12 mph77%29.68 "Hg6 mi
2:50 PM64 °FRain. Partly sunny.25 mph64%29.65 "Hg4 mi
2:20 PM64 °FLight rain. Broken clouds.25 mph64%29.68 "Hg6 mi
1:50 PM66 °FBroken clouds.16 mph60%29.68 "HgN/A
1:20 PM66 °FBroken clouds.22 mph64%29.68 "HgN/A
12:50 PM64 °FScattered clouds.25 mph64%29.68 "HgN/A
12:20 PM64 °FPassing clouds.18 mph64%29.71 "HgN/A
11:50 AM66 °FScattered clouds.20 mph60%29.71 "HgN/A
11:20 AM63 °FBroken clouds.15 mph68%29.71 "HgN/A
Weather by CustomWeather, © 2015

See weather overviewHow to use our weather pages